This demonstration page uses our WeatherBlox Daily Observations layout. Learn more.

Left ArrowRight Arrow

41.12389, -100.76542

Hourly Observations for March 30, 2020

Temp ( °F °C ) Dew Point ( °F °C ) Humidity (%) Winds ( mph kmh ) Pressure ( in mb ) Visibility ( mi km ) Precip ( " mm )
12:53 am 00:53 Clear 33 0.6 28 -2.2 82 82 SSE 5 7 30.09 1019 10 16 0.00 0.00
1:53 am 01:53 Clear 31 -0.6 26 -3.3 82 82 SE 7 11 30.10 1019 10 16 0.00 0.00
2:53 am 02:53 Clear 32 0 26 -3.3 79 79 SE 7 11 30.09 1019 10 16 0.00 0.00
3:53 am 03:53 Clear 33 0.6 27 -2.8 78 78 SE 9 15 30.09 1019 10 16 0.00 0.00
4:53 am 04:53 Clear 31 -0.6 26 -3.3 82 82 SE 7 11 30.08 1019 10 16 0.00 0.00
5:53 am 05:53 Clear 32 0 26 -3.3 79 79 SE 10 17 30.06 1018 10 16 0.00 0.00
6:53 am 06:53 Mostly Clear 32 0 27 -2.8 82 82 SE 9 15 30.07 1018 10 16 0.00 0.00
7:53 am 07:53 Cloudy with Light Rain 35 1.7 29 -1.7 78 78 ESE 8 13 30.07 1018 10 16 0.00 0.00
8:53 am 08:53 Partly Cloudy 41 5 33 0.6 73 73 SE 12 19 30.09 1019 10 16 0.00 0.00
9:53 am 09:53 Cloudy 43 6.1 33 0.6 68 68 SE 12 19 30.08 1019 10 16 0.00 0.00
10:53 am 10:53 Cloudy 46 7.8 35 1.7 66 66 SE 14 22 30.08 1019 10 16 0.00 0.00
11:53 am 11:53 Mostly Cloudy 54 12.2 38 3.3 55 55 SE 14 22 30.06 1018 10 16 0.00 0.00
12:53 pm 12:53 Mostly Sunny 62 16.7 37 2.8 40 40 SSE 20 31 30.02 1017 10 16 0.00 0.00
1:53 pm 13:53 Cloudy with Light Rain 55 12.8 39 3.9 55 55 S 13 20 30.04 1017 10 16 0.00 0.00
2:53 pm 14:53 Cloudy 58 14.4 37 2.8 46 46 SE 12 19 30.00 1016 10 16 0.00 0.00
3:53 pm 15:53 Cloudy 58 14.4 38 3.3 48 48 SSE 16 26 29.99 1016 10 16 0.00 0.00
4:53 pm 16:53 Cloudy 56 13.3 39 3.9 53 53 SSE 13 20 30.00 1016 10 16 0.00 0.00
5:53 pm 17:53 Cloudy with Light Rain 54 12.2 38 3.3 55 55 S 10 17 30.00 1016 10 16 0.00 0.00
6:53 pm 18:53 Cloudy 52 11.1 38 3.3 59 59 SSE 10 17 30.02 1017 10 16 0.00 0.00
7:53 pm 19:53 Cloudy 52 11.1 38 3.3 59 59 SSE 9 15 30.02 1017 10 16 0.00 0.00
8:53 pm 20:53 Cloudy 50 10 39 3.9 66 66 SSE 9 15 30.01 1016 10 16 0.00 0.00
9:53 pm 21:53 Cloudy 50 10 39 3.9 66 66 SSE 8 13 30.05 1018 10 16 0.00 0.00
10:30 pm 22:30 Cloudy with Light Rain 49 9.4 41 5 74 74 WNW 5 7 30.05 1018 10 16 0.03 0.76
10:53 pm 22:53 Cloudy with Light Rain 47 8.3 43 6.1 86 86 Calm 30.06 1018 10 16 0.03 0.76
11:00 pm 23:00 Cloudy 47 8.3 43 6.1 86 86 Calm 30.06 1018 10 16 0.00 0.00
11:53 pm 23:53 Cloudy 45 7.2 42 5.6 90 90 SE 3 6 30.05 1018 10 16 0.00 0.00

Powered by AerisWeather